| time (UTC) | temp F | wind direction | speed knots | gust knots | rain 1hr in | rain 24hr in | rain mn in | humidity % | barometer mb |
| 20260508113521 | 36 | 206 | 0.0 | 0.0 | 0.00 | 0.00 | 0.00 | 1 | 1010.6 |
| 20260508113019 | 36 | 205 | 0.0 | 1.7 | 0.00 | 0.00 | 0.00 | 1 | 1010.4 |
| 20260508112516 | 37 | 205 | 0.0 | 1.7 | 0.00 | 0.00 | 0.00 | 1 | 1010.5 |
| 20260508112015 | 38 | 205 | 0.0 | 1.7 | 0.00 | 0.00 | 0.00 | 1 | 1010.5 |
| 20260508111514 | 39 | 205 | 0.9 | 2.6 | 0.00 | 0.00 | 0.00 | 1 | 1010.4 |
| 20260508111013 | 39 | 205 | 0.9 | 3.5 | 0.00 | 0.00 | 0.00 | 1 | 1010.5 |
| 20260508110512 | 39 | 205 | 1.7 | 4.3 | 0.00 | 0.00 | 0.00 | 1 | 1010.5 |
| 20260508110010 | 38 | 205 | 1.7 | 4.3 | 0.00 | 0.00 | 0.00 | 1 | 1010.4 |
| 20260508105513 | 38 | 225 | 1.7 | 6.1 | 0.00 | 0.00 | 0.00 | 1 | 1010.5 |
| 20260508105008 | 37 | 253 | 1.7 | 6.1 | 0.00 | 0.00 | 0.00 | 1 | 1010.4 |
| 20260508104506 | 37 | 253 | 0.9 | 3.5 | 0.00 | 0.00 | 0.00 | 1 | 1010.4 |
| 20260508104004 | 37 | 253 | 1.7 | 3.5 | 0.00 | 0.00 | 0.00 | 1 | 1010.3 |
| 20260508103503 | 37 | 253 | 0.9 | 3.5 | 0.00 | 0.00 | 0.00 | 1 | 1010.4 |
| 20260508103005 | 37 | 253 | 1.7 | 3.5 | 0.00 | 0.00 | 0.00 | 1 | 1010.4 |
| 20260508102600 | 37 | 253 | 0.9 | 3.5 | 0.00 | 0.00 | 0.00 | 1 | 1010.4 |
| 20260508102059 | 37 | 253 | 1.7 | 3.5 | 0.00 | 0.00 | 0.00 | 1 | 1010.3 |
| 20260508101657 | 36 | 253 | 0.9 | 2.6 | 0.00 | 0.00 | 0.00 | 1 | 1010.2 |
| 20260508101056 | 36 | 253 | 0.0 | 1.7 | 0.00 | 0.00 | 0.00 | 1 | 1010.1 |
| 20260508100554 | 36 | 253 | 0.0 | 1.7 | 0.00 | 0.00 | 0.00 | 1 | 1010.0 |
| 20260508100052 | 36 | 253 | 0.9 | 1.7 | 0.00 | 0.00 | 0.00 | 1 | 1010.0 |
| 20260508095551 | 37 | 253 | 0.0 | 2.6 | 0.00 | 0.00 | 0.00 | 1 | 1010.0 |
| 20260508095053 | 38 | 253 | 1.7 | 2.6 | 0.00 | 0.00 | 0.00 | 1 | 1009.9 |
| 20260508094603 | 39 | 253 | 1.7 | 2.6 | 0.00 | 0.00 | 0.00 | 1 | 1009.9 |
| 20260508094047 | 40 | 253 | 0.0 | 1.7 | 0.00 | 0.00 | 0.00 | 1 | 1009.8 |
| 20260508093547 | 40 | 253 | 0.0 | 2.6 | 0.00 | 0.00 | 0.00 | 1 | 1009.9 |
| 20260508093045 | 40 | 253 | 0.9 | 2.6 | 0.00 | 0.00 | 0.00 | 1 | 1009.8 |
| 20260508092542 | 41 | 253 | 0.0 | 0.0 | 0.00 | 0.00 | 0.00 | 1 | 1009.8 |
| 20260508092041 | 41 | 253 | 0.0 | 0.0 | 0.00 | 0.00 | 0.00 | 1 | 1009.8 |
| 20260508091541 | 41 | 253 | 0.0 | 1.7 | 0.00 | 0.00 | 0.00 | 1 | 1009.8 |
| 20260508091039 | 40 | 253 | 0.0 | 1.7 | 0.00 | 0.00 | 0.00 | 1 | 1009.8 |
| 20260508090539 | 40 | 253 | 0.9 | 2.6 | 0.00 | 0.00 | 0.00 | 1 | 1009.8 |
| 20260508090037 | 41 | 253 | 1.7 | 2.6 | 0.00 | 0.00 | 0.00 | 1 | 1009.8 |
| 20260508085535 | 41 | 253 | 0.9 | 2.6 | 0.00 | 0.00 | 0.00 | 1 | 1009.8 |
| 20260508085033 | 41 | 253 | 0.0 | 0.0 | 0.00 | 0.00 | 0.00 | 1 | 1009.8 |
| 20260508084533 | 41 | 253 | 0.0 | 0.0 | 0.00 | 0.00 | 0.00 | 1 | 1009.9 |
| 20260508084035 | 41 | 253 | 0.0 | 0.0 | 0.00 | 0.00 | 0.00 | 1 | 1009.9 |
| 20260508083529 | 40 | 253 | 0.0 | 0.0 | 0.00 | 0.00 | 0.00 | 1 | 1009.9 |
| 20260508083046 | 40 | 253 | 0.0 | 0.0 | 0.00 | 0.00 | 0.00 | 1 | 1009.9 |
| 20260508082515 | 41 | 253 | 0.0 | 0.0 | 0.00 | 0.00 | 0.00 | 1 | 1010.0 |
| 20260508082020 | 41 | 253 | 0.0 | 0.0 | 0.00 | 0.00 | 0.00 | 1 | 1010.0 |
| 20260508081513 | 41 | 253 | 0.0 | 0.0 | 0.00 | 0.00 | 0.00 | 1 | 1010.0 |
| 20260508081010 | 41 | 253 | 0.0 | 0.0 | 0.00 | 0.00 | 0.00 | 1 | 1009.9 |
| 20260508080510 | 40 | 253 | 0.0 | 0.0 | 0.00 | 0.00 | 0.00 | 1 | 1009.9 |
| 20260508075506 | 40 | 253 | 0.0 | 0.0 | 0.00 | 0.00 | 0.00 | 3 | 1010.0 |
| 20260508075004 | 41 | 253 | 0.0 | 1.7 | 0.00 | 0.00 | 0.00 | 2 | 1009.9 |
| 20260508074502 | 41 | 253 | 0.0 | 1.7 | 0.00 | 0.00 | 0.00 | 1 | 1009.9 |
| 20260508074002 | 42 | 253 | 0.0 | 1.7 | 0.00 | 0.00 | 0.00 | 1 | 1009.9 |
| 20260508073601 | 42 | 253 | 0.0 | 1.7 | 0.00 | 0.00 | 0.00 | 1 | 1009.9 |
| 20260508073101 | 42 | 253 | 0.0 | 0.0 | 0.00 | 0.00 | 0.00 | 1 | 1009.9 |
| 20260508072558 | 42 | 253 | 0.0 | 1.7 | 0.00 | 0.00 | 0.00 | 1 | 1009.8 |
| 20260508072056 | 42 | 253 | 0.0 | 1.7 | 0.00 | 0.00 | 0.00 | 1 | 1009.7 |
| 20260508071557 | 42 | 253 | 0.9 | 1.7 | 0.00 | 0.00 | 0.00 | 1 | 1009.8 |
| 20260508071053 | 42 | 253 | 0.0 | 1.7 | 0.00 | 0.00 | 0.00 | 1 | 1009.8 |
| 20260508070552 | 42 | 253 | 0.0 | 0.0 | 0.00 | 0.00 | 0.00 | 1 | 1009.8 |
| 20260508070053 | 41 | 253 | 0.0 | 0.0 | 0.00 | 0.00 | 0.00 | 7 | 1009.8 |
| 20260508065548 | 41 | 253 | 0.0 | 0.9 | 0.00 | 0.00 | 0.00 | 16 | 1009.7 |
| 20260508065047 | 42 | 253 | 0.0 | 3.5 | 0.00 | 0.00 | 0.00 | 25 | 1009.7 |
| 20260508064604 | 44 | 253 | 2.6 | 3.5 | 0.00 | 0.00 | 0.00 | 22 | 1009.7 |
| 20260508064044 | 45 | 253 | 0.0 | 2.6 | 0.00 | 0.00 | 0.00 | 13 | 1009.7 |
| 20260508063543 | 45 | 253 | 1.7 | 2.6 | 0.00 | 0.00 | 0.00 | 12 | 1009.6 |
| 20260508063044 | 46 | 253 | 0.0 | 2.6 | 0.00 | 0.00 | 0.00 | 7 | 1009.5 |
| 20260508062540 | 45 | 253 | 0.0 | 3.5 | 0.00 | 0.00 | 0.00 | 6 | 1009.6 |
| 20260508062039 | 45 | 253 | 0.9 | 3.5 | 0.00 | 0.00 | 0.00 | 13 | 1009.6 |
| 20260508061542 | 45 | 253 | 0.9 | 3.5 | 0.00 | 0.00 | 0.00 | 14 | 1009.7 |
| 20260508061037 | 45 | 253 | 1.7 | 3.5 | 0.00 | 0.00 | 0.00 | 14 | 1009.6 |
| 20260508060537 | 45 | 253 | 2.6 | 3.5 | 0.00 | 0.00 | 0.00 | 14 | 1009.5 |
| 20260508060034 | 46 | 263 | 0.9 | 2.6 | 0.00 | 0.00 | 0.00 | 15 | 1009.5 |
| 20260508055531 | 47 | 267 | 1.7 | 2.6 | 0.00 | 0.00 | 0.00 | 10 | 1009.3 |
| 20260508055030 | 47 | 141 | 0.0 | 1.7 | 0.00 | 0.00 | 0.00 | 10 | 1009.2 |
| 20260508054529 | 47 | 141 | 0.0 | 1.7 | 0.00 | 0.00 | 0.00 | 1 | 1009.2 |
| 20260508054026 | 45 | 141 | 0.0 | 1.7 | 0.00 | 0.00 | 0.00 | 22 | 1009.2 |
| 20260508053526 | 45 | 141 | 0.0 | 4.3 | 0.00 | 0.00 | 0.00 | 37 | 1009.2 |
| 20260508053026 | 46 | 141 | 2.6 | 4.3 | 0.00 | 0.00 | 0.00 | 41 | 1009.2 |
| 20260508052525 | 48 | 359 | 0.0 | 2.6 | 0.00 | 0.00 | 0.00 | 34 | 1009.0 |
| 20260508052020 | 49 | 359 | 0.0 | 1.7 | 0.00 | 0.00 | 0.00 | 15 | 1008.9 |
| 20260508051519 | 49 | 359 | 0.0 | 0.9 | 0.00 | 0.00 | 0.00 | 6 | 1008.8 |
| 20260508051018 | 49 | 359 | 0.0 | 0.9 | 0.00 | 0.00 | 0.00 | 18 | 1008.8 |
| 20260508050516 | 48 | 359 | 0.0 | 0.0 | 0.00 | 0.00 | 0.00 | 30 | 1008.7 |
| 20260508050020 | 48 | 359 | 0.0 | 0.0 | 0.00 | 0.00 | 0.00 | 43 | 1008.8 |
| 20260508045513 | 49 | 359 | 0.0 | 0.0 | 0.00 | 0.00 | 0.00 | 44 | 1008.7 |
| 20260508045012 | 49 | 359 | 0.0 | 0.0 | 0.00 | 0.00 | 0.00 | 46 | 1008.6 |
| 20260508044511 | 50 | 359 | 0.0 | 2.6 | 0.00 | 0.00 | 0.00 | 48 | 1008.6 |
| 20260508044010 | 50 | 359 | 0.0 | 2.6 | 0.00 | 0.00 | 0.00 | 50 | 1008.6 |
| 20260508043508 | 51 | 359 | 0.9 | 4.3 | 0.00 | 0.00 | 0.00 | 49 | 1008.6 |
| 20260508043007 | 51 | 359 | 0.9 | 4.3 | 0.00 | 0.00 | 0.00 | 51 | 1008.7 |
| 20260508042505 | 52 | 359 | 1.7 | 3.5 | 0.00 | 0.00 | 0.00 | 52 | 1008.6 |
| 20260508042003 | 53 | 359 | 0.0 | 1.7 | 0.00 | 0.00 | 0.00 | 53 | 1008.7 |
| 20260508041509 | 53 | 359 | 0.0 | 1.7 | 0.00 | 0.00 | 0.00 | 53 | 1008.6 |
| 20260508041001 | 54 | 359 | 0.0 | 0.9 | 0.00 | 0.00 | 0.00 | 53 | 1008.5 |
| 20260508040559 | 54 | 359 | 0.0 | 0.9 | 0.00 | 0.00 | 0.00 | 52 | 1008.5 |
| 20260508040111 | 55 | 359 | 0.0 | 3.5 | 0.00 | 0.00 | 0.00 | 52 | 1008.4 |
| 20260508035556 | 56 | 359 | 0.0 | 3.5 | 0.00 | 0.00 | 0.00 | 52 | 1008.4 |
| 20260508035501 | 56 | 359 | 0.9 | 3.5 | 0.00 | 0.00 | 0.00 | 52 | 1008.4 |
| 20260508035057 | 56 | 359 | 0.0 | 1.7 | 0.00 | 0.00 | 0.00 | 51 | 1008.4 |
| 20260508034556 | 57 | 359 | 0.0 | 1.7 | 0.00 | 0.00 | 0.00 | 50 | 1008.4 |
| 20260508034051 | 58 | 355 | 0.0 | 1.7 | 0.00 | 0.00 | 0.00 | 49 | 1008.2 |
| 20260508033552 | 59 | 359 | 0.0 | 2.6 | 0.00 | 0.00 | 0.00 | 48 | 1008.2 |
| 20260508033048 | 59 | 359 | 0.9 | 3.5 | 0.00 | 0.00 | 0.00 | 46 | 1008.1 |
| 20260508032547 | 59 | 359 | 0.9 | 4.3 | 0.00 | 0.00 | 0.00 | 46 | 1008.0 |
| 20260508032047 | 59 | 46 | 0.0 | 0.0 | 0.00 | 0.00 | 0.00 | 48 | 1008.1 |
| 20260508031544 | 58 | 335 | 0.0 | 0.0 | 0.00 | 0.00 | 0.00 | 48 | 1008.1 |
| 20260508031044 | 57 | 11 | 0.0 | 0.0 | 0.00 | 0.00 | 0.00 | 49 | 1008.0 |
| 20260508030542 | 57 | 11 | 0.0 | 0.0 | 0.00 | 0.00 | 0.00 | 49 | 1008.0 |
| 20260508030050 | 57 | 11 | 0.0 | 0.0 | 0.00 | 0.00 | 0.00 | 50 | 1007.9 |
| 20260508025539 | 57 | 245 | 0.0 | 0.0 | 0.00 | 0.00 | 0.00 | 50 | 1007.8 |
| 20260508025038 | 57 | 245 | 0.0 | 0.0 | 0.00 | 0.00 | 0.00 | 50 | 1007.7 |
| 20260508024546 | 58 | 245 | 0.0 | 3.5 | 0.00 | 0.00 | 0.00 | 48 | 1007.6 |
| 20260508024037 | 59 | 245 | 1.7 | 5.2 | 0.00 | 0.00 | 0.00 | 47 | 1007.5 |
| 20260508023534 | 60 | 250 | 3.5 | 5.2 | 0.00 | 0.00 | 0.00 | 46 | 1007.5 |
| 20260508023036 | 61 | 242 | 2.6 | 5.2 | 0.00 | 0.00 | 0.00 | 45 | 1007.6 |
| 20260508022531 | 63 | 246 | 0.0 | 5.2 | 0.00 | 0.00 | 0.00 | 42 | 1007.5 |
| 20260508022030 | 64 | 248 | 1.7 | 5.2 | 0.00 | 0.00 | 0.00 | 40 | 1007.5 |
| 20260508021528 | 66 | 213 | 0.0 | 2.6 | 0.00 | 0.00 | 0.00 | 39 | 1007.4 |
| 20260508021029 | 67 | 247 | 0.0 | 2.6 | 0.00 | 0.00 | 0.00 | 39 | 1007.5 |
| 20260508020526 | 68 | 248 | 0.9 | 3.5 | 0.00 | 0.00 | 0.00 | 38 | 1007.5 |
| 20260508020024 | 69 | 219 | 0.9 | 3.5 | 0.00 | 0.00 | 0.00 | 36 | 1007.5 |
| 20260508015523 | 70 | 224 | 0.9 | 3.5 | 0.00 | 0.00 | 0.00 | 35 | 1007.4 |
| 20260508015021 | 71 | 224 | 1.7 | 3.5 | 0.00 | 0.00 | 0.00 | 34 | 1007.5 |
| 20260508014530 | 72 | 258 | 1.7 | 3.5 | 0.00 | 0.00 | 0.00 | 33 | 1007.5 |
| 20260508014018 | 72 | 243 | 1.7 | 4.3 | 0.00 | 0.00 | 0.00 | 33 | 1007.6 |
| 20260508013518 | 73 | 253 | 1.7 | 6.1 | 0.00 | 0.00 | 0.00 | 33 | 1007.7 |
| 20260508013015 | 73 | 226 | 3.5 | 7.0 | 0.00 | 0.00 | 0.00 | 32 | 1007.8 |
| 20260508012518 | 73 | 244 | 2.6 | 6.1 | 0.00 | 0.00 | 0.00 | 31 | 1007.7 |
| 20260508012012 | 73 | 207 | 2.6 | 6.1 | 0.00 | 0.00 | 0.00 | 31 | 1007.8 |
| 20260508011510 | 73 | 263 | 1.7 | 7.8 | 0.00 | 0.00 | 0.00 | 29 | 1007.9 |
| 20260508011009 | 73 | 240 | 3.5 | 8.7 | 0.00 | 0.00 | 0.00 | 30 | 1007.9 |
| 20260508010508 | 72 | 267 | 3.5 | 9.6 | 0.00 | 0.00 | 0.00 | 29 | 1008.0 |
| 20260508010006 | 72 | 242 | 0.0 | 3.5 | 0.00 | 0.00 | 0.00 | 31 | 1008.0 |
| 20260508005513 | 72 | 226 | 1.7 | 3.5 | 0.00 | 0.00 | 0.00 | 31 | 1008.0 |
| 20260508005004 | 72 | 174 | 0.9 | 4.3 | 0.00 | 0.00 | 0.00 | 30 | 1008.0 |
| 20260508004502 | 72 | 263 | 2.6 | 7.8 | 0.00 | 0.00 | 0.00 | 31 | 1008.2 |
| 20260508004003 | 73 | 316 | 4.3 | 7.8 | 0.00 | 0.00 | 0.00 | 29 | 1008.2 |
| 20260508003559 | 73 | 268 | 3.5 | 6.1 | 0.00 | 0.00 | 0.00 | 29 | 1008.2 |
| 20260508003112 | 73 | 274 | 1.7 | 7.8 | 0.00 | 0.00 | 0.00 | 30 | 1008.3 |
| 20260508002556 | 73 | 335 | 2.6 | 13.9 | 0.00 | 0.00 | 0.00 | 29 | 1008.4 |
| 20260508002055 | 73 | 286 | 7.0 | 13.9 | 0.00 | 0.00 | 0.00 | 29 | 1008.4 |
| 20260508001553 | 73 | 291 | 6.1 | 11.3 | 0.00 | 0.00 | 0.00 | 29 | 1008.5 |
| 20260508001053 | 73 | 286 | 2.6 | 13.0 | 0.00 | 0.00 | 0.00 | 30 | 1008.5 |
| 20260508000551 | 74 | 315 | 7.8 | 13.0 | 0.00 | 0.00 | 0.00 | 28 | 1008.6 |
| 20260508000049 | 74 | 273 | 7.8 | 11.3 | 0.00 | 0.00 | 0.00 | 29 | 1008.6 |
| 20260507235548 | 73 | 306 | 7.8 | 11.3 | 0.00 | 0.00 | 0.00 | 28 | 1008.7 |
| 20260507235046 | 73 | 307 | 7.0 | 11.3 | 0.00 | 0.00 | 0.00 | 28 | 1008.7 |
| 20260507234545 | 73 | 240 | 5.2 | 11.3 | 0.00 | 0.00 | 0.00 | 28 | 1008.7 |
| 20260507234043 | 73 | 271 | 4.3 | 10.4 | 0.00 | 0.00 | 0.00 | 28 | 1008.8 |
| 20260507233542 | 73 | 323 | 6.1 | 11.3 | 0.00 | 0.00 | 0.00 | 27 | 1008.8 |
| 20260507233041 | 73 | 280 | 4.3 | 11.3 | 0.00 | 0.00 | 0.00 | 27 | 1008.9 |
| 20260507232538 | 73 | 305 | 6.1 | 14.8 | 0.00 | 0.00 | 0.00 | 27 | 1008.9 |
| 20260507232037 | 73 | 283 | 7.8 | 14.8 | 0.00 | 0.00 | 0.00 | 27 | 1009.1 |
| 20260507231539 | 74 | 336 | 7.0 | 11.3 | 0.00 | 0.00 | 0.00 | 27 | 1009.0 |
| 20260507231034 | 74 | 350 | 3.5 | 11.3 | 0.00 | 0.00 | 0.00 | 27 | 1009.1 |
| 20260507230535 | 74 | 345 | 6.1 | 15.6 | 0.00 | 0.00 | 0.00 | 26 | 1009.2 |
| 20260507230031 | 74 | 296 | 9.6 | 15.6 | 0.00 | 0.00 | 0.00 | 26 | 1009.2 |
| 20260507225530 | 74 | 276 | 5.2 | 15.6 | 0.00 | 0.00 | 0.00 | 26 | 1009.3 |
| 20260507225032 | 75 | 5 | 7.8 | 15.6 | 0.00 | 0.00 | 0.00 | 26 | 1009.3 |
| 20260507224528 | 74 | 294 | 7.0 | 13.0 | 0.00 | 0.00 | 0.00 | 27 | 1009.4 |
| 20260507224026 | 74 | 291 | 4.3 | 12.2 | 0.00 | 0.00 | 0.00 | 26 | 1009.4 |
| 20260507223528 | 74 | 282 | 3.5 | 11.3 | 0.00 | 0.00 | 0.00 | 27 | 1009.7 |
| 20260507223023 | 74 | 355 | 3.5 | 13.0 | 0.00 | 0.00 | 0.00 | 26 | 1009.7 |
| 20260507222522 | 74 | 300 | 4.3 | 18.2 | 0.00 | 0.00 | 0.00 | 26 | 1009.8 |
| 20260507222020 | 74 | 278 | 11.3 | 18.2 | 0.00 | 0.00 | 0.00 | 28 | 1009.8 |
| 20260507221518 | 74 | 274 | 9.6 | 15.6 | 0.00 | 0.00 | 0.00 | 27 | 1010.0 |
| 20260507221018 | 74 | 335 | 1.7 | 8.7 | 0.00 | 0.00 | 0.00 | 25 | 1010.0 |
| 20260507220515 | 74 | 253 | 4.3 | 8.7 | 0.00 | 0.00 | 0.00 | 27 | 1010.1 |
| 20260507220013 | 74 | 359 | 2.6 | 10.4 | 0.00 | 0.00 | 0.00 | 28 | 1010.1 |
| 20260507215513 | 73 | 55 | 6.1 | 11.3 | 0.00 | 0.00 | 0.00 | 30 | 1010.2 |
| 20260507215010 | 74 | 94 | 5.2 | 9.6 | 0.00 | 0.00 | 0.00 | 27 | 1010.2 |
| 20260507214509 | 74 | 77 | 2.6 | 11.3 | 0.00 | 0.00 | 0.00 | 28 | 1010.3 |
| 20260507214008 | 73 | 43 | 7.8 | 11.3 | 0.00 | 0.00 | 0.00 | 29 | 1010.4 |
| 20260507213506 | 73 | 8 | 4.3 | 12.2 | 0.00 | 0.00 | 0.00 | 30 | 1010.5 |
| 20260507213005 | 72 | 20 | 8.7 | 14.8 | 0.00 | 0.00 | 0.00 | 30 | 1010.6 |
| 20260507212503 | 72 | 31 | 8.7 | 14.8 | 0.00 | 0.00 | 0.00 | 28 | 1010.6 |
| 20260507212002 | 73 | 359 | 6.1 | 13.9 | 0.00 | 0.00 | 0.00 | 29 | 1010.7 |
| 20260507211601 | 73 | 275 | 5.2 | 13.9 | 0.00 | 0.00 | 0.00 | 27 | 1010.7 |
| 20260507211058 | 74 | 32 | 4.3 | 12.2 | 0.00 | 0.00 | 0.00 | 28 | 1010.9 |
| 20260507210557 | 74 | 40 | 5.2 | 10.4 | 0.00 | 0.00 | 0.00 | 28 | 1011.0 |
| 20260507210056 | 74 | 24 | 4.3 | 11.3 | 0.00 | 0.00 | 0.00 | 27 | 1011.1 |
| 20260507205556 | 74 | 16 | 6.1 | 11.3 | 0.00 | 0.00 | 0.00 | 29 | 1011.1 |
| 20260507205052 | 74 | 328 | 3.5 | 13.9 | 0.00 | 0.00 | 0.00 | 28 | 1011.3 |
| 20260507204600 | 73 | 33 | 7.0 | 13.9 | 0.00 | 0.00 | 0.00 | 31 | 1011.4 |
| 20260507204051 | 72 | 47 | 5.2 | 9.6 | 0.00 | 0.00 | 0.00 | 29 | 1011.4 |
| 20260507203548 | 71 | 47 | 4.3 | 8.7 | 0.00 | 0.00 | 0.00 | 29 | 1011.5 |
| 20260507203048 | 72 | 7 | 3.5 | 10.4 | 0.00 | 0.00 | 0.00 | 28 | 1011.7 |
| 20260507202545 | 73 | 350 | 2.6 | 9.6 | 0.00 | 0.00 | 0.00 | 28 | 1011.7 |
| 20260507202043 | 73 | 18 | 5.2 | 9.6 | 0.00 | 0.00 | 0.00 | 27 | 1011.6 |
| 20260507201544 | 73 | 62 | 2.6 | 6.1 | 0.00 | 0.00 | 0.00 | 29 | 1011.7 |
| 20260507201041 | 72 | 74 | 2.6 | 13.0 | 0.00 | 0.00 | 0.00 | 29 | 1011.8 |
| 20260507200540 | 72 | 359 | 6.1 | 13.9 | 0.00 | 0.00 | 0.00 | 29 | 1011.8 |
| 20260507200040 | 71 | 345 | 7.0 | 11.3 | 0.00 | 0.00 | 0.00 | 30 | 1011.9 |
| 20260507195540 | 70 | 282 | 7.0 | 12.2 | 0.00 | 0.00 | 0.00 | 31 | 1011.9 |
| 20260507195040 | 70 | 240 | 7.0 | 13.9 | 0.00 | 0.00 | 0.00 | 32 | 1012.1 |
| 20260507194535 | 70 | 248 | 7.8 | 13.0 | 0.00 | 0.00 | 0.00 | 30 | 1012.0 |
| 20260507194034 | 69 | 220 | 3.5 | 10.4 | 0.00 | 0.00 | 0.00 | 31 | 1012.1 |
| 20260507193532 | 69 | 258 | 3.5 | 9.6 | 0.00 | 0.00 | 0.00 | 31 | 1012.3 |
| 20260507193032 | 69 | 219 | 3.5 | 9.6 | 0.00 | 0.00 | 0.00 | 31 | 1012.4 |
| 20260507192527 | 69 | 232 | 4.3 | 12.2 | 0.00 | 0.00 | 0.00 | 31 | 1012.4 |
| 20260507192026 | 70 | 187 | 6.1 | 16.5 | 0.00 | 0.00 | 0.00 | 31 | 1012.5 |
| 20260507191525 | 70 | 237 | 8.7 | 17.4 | 0.00 | 0.00 | 0.00 | 29 | 1012.5 |
| 20260507191027 | 71 | 245 | 7.8 | 14.8 | 0.00 | 0.00 | 0.00 | 31 | 1012.5 |
| 20260507190522 | 71 | 257 | 6.1 | 13.9 | 0.00 | 0.00 | 0.00 | 30 | 1012.7 |
| 20260507190034 | 70 | 225 | 7.0 | 13.9 | 0.00 | 0.00 | 0.00 | 30 | 1012.7 |
| 20260507185519 | 70 | 252 | 4.3 | 8.7 | 0.00 | 0.00 | 0.00 | 30 | 1012.9 |
| 20260507185020 | 70 | 219 | 5.2 | 10.4 | 0.00 | 0.00 | 0.00 | 30 | 1012.9 |
| 20260507184525 | 69 | 177 | 6.1 | 10.4 | 0.00 | 0.00 | 0.00 | 29 | 1013.0 |
| 20260507184014 | 70 | 213 | 6.1 | 11.3 | 0.00 | 0.00 | 0.00 | 32 | 1013.1 |
| 20260507183513 | 70 | 205 | 6.1 | 13.0 | 0.00 | 0.00 | 0.00 | 30 | 1013.2 |
| 20260507183018 | 69 | 203 | 5.2 | 10.4 | 0.00 | 0.00 | 0.00 | 30 | 1013.2 |
| 20260507182510 | 69 | 191 | 6.1 | 12.2 | 0.00 | 0.00 | 0.00 | 29 | 1013.4 |
| 20260507182011 | 69 | 256 | 8.7 | 12.2 | 0.00 | 0.00 | 0.00 | 30 | 1013.4 |
| 20260507181507 | 69 | 201 | 5.2 | 8.7 | 0.00 | 0.00 | 0.00 | 31 | 1013.5 |
| 20260507181005 | 69 | 167 | 5.2 | 10.4 | 0.00 | 0.00 | 0.00 | 30 | 1013.6 |
| 20260507180503 | 68 | 240 | 3.5 | 8.7 | 0.00 | 0.00 | 0.00 | 31 | 1013.7 |
| 20260507180007 | 68 | 195 | 4.3 | 8.7 | 0.00 | 0.00 | 0.00 | 31 | 1013.8 |
| 20260507175501 | 68 | 195 | 4.3 | 13.9 | 0.00 | 0.00 | 0.00 | 31 | 1013.9 |
| 20260507175100 | 68 | 223 | 7.0 | 13.9 | 0.00 | 0.00 | 0.00 | 31 | 1014.0 |
| 20260507174559 | 68 | 181 | 5.2 | 11.3 | 0.00 | 0.00 | 0.00 | 32 | 1013.9 |
| 20260507174056 | 68 | 245 | 6.1 | 12.2 | 0.00 | 0.00 | 0.00 | 31 | 1014.2 |
| 20260507173555 | 68 | 163 | 8.7 | 12.2 | 0.00 | 0.00 | 0.00 | 31 | 1014.2 |
| 20260507173056 | 68 | 182 | 7.8 | 11.3 | 0.00 | 0.00 | 0.00 | 31 | 1014.1 |
| 20260507172552 | 67 | 225 | 5.2 | 13.0 | 0.00 | 0.00 | 0.00 | 31 | 1014.2 |
| 20260507172051 | 67 | 154 | 8.7 | 13.9 | 0.00 | 0.00 | 0.00 | 31 | 1014.4 |
| 20260507171554 | 66 | 150 | 8.7 | 13.9 | 0.00 | 0.00 | 0.00 | 31 | 1014.5 |
| 20260507171047 | 66 | 192 | 7.8 | 10.4 | 0.00 | 0.00 | 0.00 | 31 | 1014.5 |
| 20260507170546 | 66 | 157 | 8.7 | 11.3 | 0.00 | 0.00 | 0.00 | 32 | 1014.5 |
| 20260507170048 | 65 | 186 | 8.7 | 12.2 | 0.00 | 0.00 | 0.00 | 32 | 1014.7 |
| 20260507165544 | 65 | 221 | 8.7 | 13.0 | 0.00 | 0.00 | 0.00 | 33 | 1014.8 |
| 20260507165045 | 64 | 170 | 8.7 | 13.0 | 0.00 | 0.00 | 0.00 | 33 | 1014.7 |
| 20260507164540 | 64 | 182 | 7.0 | 12.2 | 0.00 | 0.00 | 0.00 | 34 | 1014.9 |
| 20260507164039 | 64 | 190 | 8.7 | 13.0 | 0.00 | 0.00 | 0.00 | 34 | 1015.0 |
| 20260507163540 | 64 | 166 | 9.6 | 12.2 | 0.00 | 0.00 | 0.00 | 33 | 1015.1 |
| 20260507163036 | 64 | 144 | 9.6 | 11.3 | 0.00 | 0.00 | 0.00 | 33 | 1015.0 |
| 20260507162535 | 63 | 151 | 7.8 | 11.3 | 0.00 | 0.00 | 0.00 | 36 | 1015.0 |
| 20260507162032 | 63 | 150 | 9.6 | 13.0 | 0.00 | 0.00 | 0.00 | 35 | 1015.1 |
| 20260507161531 | 63 | 195 | 8.7 | 12.2 | 0.00 | 0.00 | 0.00 | 36 | 1015.2 |
| 20260507161029 | 62 | 161 | 9.6 | 14.8 | 0.00 | 0.00 | 0.00 | 37 | 1015.3 |
| 20260507160530 | 61 | 154 | 9.6 | 12.2 | 0.00 | 0.00 | 0.00 | 38 | 1015.4 |
| 20260507160026 | 61 | 165 | 8.7 | 13.0 | 0.00 | 0.00 | 0.00 | 39 | 1015.5 |
| 20260507155525 | 60 | 110 | 7.8 | 14.8 | 0.00 | 0.01 | 0.00 | 40 | 1015.6 |
| 20260507155023 | 59 | 146 | 9.6 | 14.8 | 0.00 | 0.01 | 0.00 | 41 | 1015.7 |
| 20260507154522 | 58 | 156 | 10.4 | 15.6 | 0.00 | 0.01 | 0.00 | 39 | 1015.7 |
| 20260507154021 | 57 | 153 | 10.4 | 14.8 | 0.00 | 0.01 | 0.00 | 41 | 1015.8 |
| 20260507153519 | 56 | 153 | 9.6 | 12.2 | 0.00 | 0.01 | 0.00 | 42 | 1016.0 |
| 20260507153018 | 55 | 162 | 7.8 | 12.2 | 0.00 | 0.01 | 0.00 | 43 | 1016.3 |
| 20260507152516 | 55 | 170 | 7.8 | 12.2 | 0.00 | 0.01 | 0.00 | 43 | 1016.2 |
| 20260507152014 | 55 | 156 | 7.8 | 12.2 | 0.00 | 0.01 | 0.00 | 43 | 1016.3 |
| 20260507151515 | 56 | 157 | 7.8 | 12.2 | 0.00 | 0.01 | 0.00 | 43 | 1016.4 |
| 20260507151011 | 56 | 159 | 8.7 | 12.2 | 0.00 | 0.01 | 0.00 | 43 | 1016.4 |
| 20260507150510 | 56 | 166 | 8.7 | 12.2 | 0.00 | 0.01 | 0.00 | 43 | 1016.4 |
| 20260507150012 | 55 | 167 | 9.6 | 13.0 | 0.00 | 0.01 | 0.00 | 46 | 1016.4 |
| 20260507145507 | 53 | 169 | 7.8 | 12.2 | 0.00 | 0.01 | 0.00 | 50 | 1016.5 |
| 20260507145005 | 51 | 190 | 7.8 | 11.3 | 0.00 | 0.01 | 0.00 | 51 | 1016.6 |
| 20260507144504 | 50 | 175 | 7.0 | 10.4 | 0.00 | 0.01 | 0.00 | 49 | 1016.7 |
| 20260507144003 | 48 | 167 | 6.1 | 8.7 | 0.00 | 0.01 | 0.00 | 40 | 1016.7 |
| 20260507143603 | 47 | 187 | 6.1 | 8.7 | 0.00 | 0.01 | 0.00 | 23 | 1016.8 |
| 20260507143102 | 46 | 153 | 6.1 | 7.8 | 0.00 | 0.01 | 0.00 | 1 | 1016.8 |
| 20260507142558 | 45 | 178 | 4.3 | 6.1 | 0.00 | 0.01 | 0.00 | 1 | 1016.8 |
| 20260507142056 | 44 | 170 | 3.5 | 6.1 | 0.00 | 0.01 | 0.00 | 1 | 1016.8 |
| 20260507141602 | 43 | 175 | 4.3 | 7.0 | 0.00 | 0.01 | 0.00 | 1 | 1016.7 |
| 20260507141053 | 43 | 170 | 5.2 | 7.0 | 0.00 | 0.01 | 0.00 | 1 | 1016.7 |
| 20260507140552 | 42 | 164 | 5.2 | 7.0 | 0.00 | 0.01 | 0.00 | 1 | 1016.6 |
| 20260507140107 | 41 | 175 | 5.2 | 7.8 | 0.00 | 0.01 | 0.00 | 1 | 1016.6 |
| 20260507135548 | 40 | 166 | 6.1 | 7.8 | 0.00 | 0.01 | 0.00 | 1 | 1016.6 |
| 20260507135048 | 39 | 173 | 4.3 | 6.1 | 0.00 | 0.01 | 0.00 | 1 | 1016.6 |
| 20260507134546 | 38 | 148 | 3.5 | 7.0 | 0.00 | 0.01 | 0.00 | 1 | 1016.6 |
| 20260507134044 | 37 | 158 | 4.3 | 6.1 | 0.00 | 0.01 | 0.00 | 1 | 1016.6 |
| 20260507133543 | 36 | 158 | 3.5 | 7.0 | 0.00 | 0.01 | 0.00 | 1 | 1016.5 |
| 20260507133041 | 36 | 136 | 3.5 | 7.0 | 0.00 | 0.01 | 0.00 | 1 | 1016.5 |
| 20260507132539 | 35 | 118 | 2.6 | 6.1 | 0.00 | 0.01 | 0.00 | 1 | 1016.5 |
| 20260507132040 | 35 | 155 | 3.5 | 6.1 | 0.00 | 0.01 | 0.00 | 1 | 1016.5 |
| 20260507131538 | 34 | 155 | 4.3 | 6.1 | 0.00 | 0.01 | 0.00 | 1 | 1016.6 |
| 20260507131037 | 34 | 158 | 4.3 | 6.1 | 0.00 | 0.01 | 0.00 | 1 | 1016.5 |
| 20260507130534 | 34 | 194 | 3.5 | 4.3 | 0.00 | 0.01 | 0.00 | 1 | 1016.5 |
| 20260507130036 | 34 | 184 | 1.7 | 3.5 | 0.00 | 0.01 | 0.00 | 1 | 1016.5 |
| 20260507125534 | 33 | 184 | 0.9 | 3.5 | 0.00 | 0.01 | 0.00 | 1 | 1016.5 |
| 20260507125030 | 33 | 184 | 0.9 | 3.5 | 0.00 | 0.01 | 0.00 | 1 | 1016.4 |
| 20260507124528 | 33 | 184 | 0.0 | 3.5 | 0.00 | 0.01 | 0.00 | 1 | 1016.4 |
| 20260507124027 | 32 | 184 | 0.0 | 3.5 | 0.00 | 0.01 | 0.00 | 1 | 1016.5 |
| 20260507123525 | 32 | 184 | 1.7 | 3.5 | 0.00 | 0.01 | 0.00 | 1 | 1016.4 |
| 20260507123026 | 33 | 219 | 0.0 | 2.6 | 0.00 | 0.01 | 0.00 | 1 | 1016.4 |
| 20260507122521 | 33 | 219 | 0.9 | 2.6 | 0.00 | 0.01 | 0.00 | 1 | 1016.4 |
| 20260507122021 | 33 | 219 | 0.9 | 3.5 | 0.00 | 0.01 | 0.00 | 1 | 1016.3 |
| 20260507121519 | 33 | 194 | 0.9 | 2.6 | 0.00 | 0.01 | 0.00 | 1 | 1016.3 |
| 20260507121021 | 33 | 203 | 0.0 | 1.7 | 0.00 | 0.01 | 0.00 | 1 | 1016.4 |
| 20260507120515 | 33 | 193 | 0.0 | 1.7 | 0.00 | 0.01 | 0.00 | 1 | 1016.4 |
| 20260507120014 | 32 | 193 | 0.0 | 1.7 | 0.00 | 0.01 | 0.00 | 1 | 1016.3 |
| 20260507115513 | 32 | 193 | 0.0 | 1.7 | 0.00 | 0.01 | 0.00 | 1 | 1016.3 |
| 20260507115013 | 32 | 193 | 0.0 | 1.7 | 0.00 | 0.01 | 0.00 | 1 | 1016.2 |
| 20260507114510 | 32 | 193 | 0.0 | 2.6 | 0.00 | 0.01 | 0.00 | 1 | 1016.2 |
| 20260507114010 | 31 | 193 | 0.9 | 2.6 | 0.00 | 0.01 | 0.00 | 1 | 1016.2 |